Home > Weather > Kuopio > Past weeks

Flag for Finland Past Weather in Kuopio, Finland — Yesterday and Last 2 Weeks

Now
59 °F

Low clouds.


Feels Like: 58 °F
Forecast: 59 / 72 °F
Wind: 8 mph from North

Location: Kuopio Airport

Current Time: Jun 26, 2016 at 7:37:50 AM

Latest Report: Jun 26, 2016 at 6:50 AM


Visibility: N/A

Pressure: 30.01 "Hg

Humidity: 88%

Dew Point: 55 °F

Location of KuopioLocation

Past Weather in Kuopio — Graph

°F

Kuopio Temperature Yesterday

Maximum temperature yesterday: 77 °F (at 5:20 PM)
Minimum temperature yesterday: 57 °F (at 2:50 AM)
Average temperature yesterday: 67 °F

High & Low Weather Summary for the Past Weeks

 TemperatureHumidityPressure
High77 °F (Jun 25, 5:20 PM)100% (Jun 17, 4:50 AM)30.18 "Hg (Jun 17, 4:50 AM)
Low41 °F (Jun 12, 2:50 AM)28% (Jun 15, 10:50 AM)29.39 "Hg (Jun 18, 12:20 PM)
Average60 °F69%29.84 "Hg
* Reported Jun 11 6:20 AM — Jun 26 6:20 AM, Kuopio, Weather by CustomWeather, © 2016

Note: Actual official high and low records may vary slightly from our data, if they occured in-between our weather recording intervals... More about our weather records

Advertising

Kuopio Weather History for the Previous 24 Hours

Scroll right to see more
 ConditionsComfort  
Time TempWeatherWind HumidityBarometerVisibility
6:20 AM
Sun, Jun 26
57 °FPartly sunny.7 mph94%30.01 "HgN/A
5:50 AM59 °FScattered clouds.7 mph88%30.01 "HgN/A
5:20 AM59 °FPartly sunny.8 mph88%29.98 "HgN/A
4:50 AM59 °FBroken clouds.7 mph88%30.01 "HgN/A
4:20 AM59 °FBroken clouds.9 mph94%29.98 "HgN/A
3:50 AM59 °FPassing clouds.7 mph88%29.98 "HgN/A
3:20 AM59 °FPassing clouds.6 mph88%29.98 "HgN/A
2:50 AM59 °FCool.6 mph94%29.98 "HgN/A
2:20 AM59 °FPassing clouds.8 mph94%29.98 "HgN/A
1:50 AM61 °FCool.7 mph88%29.98 "HgN/A
1:20 AM61 °FCool.7 mph88%29.98 "HgN/A
12:50 AM61 °FCool.6 mph88%29.95 "HgN/A
12:20 AM61 °FCool.7 mph88%29.95 "HgN/A
11:50 PM
Sat, Jun 25
61 °FCool.7 mph88%29.95 "HgN/A
11:20 PM61 °FCool.9 mph88%29.95 "HgN/A
10:50 PM63 °FMild.8 mph83%29.95 "HgN/A
10:20 PM64 °FMild.8 mph83%29.92 "HgN/A
9:50 PM64 °FMild.9 mph83%29.92 "HgN/A
9:20 PM66 °FMild.10 mph83%29.92 "HgN/A
8:50 PM68 °FMild.12 mph78%29.89 "HgN/A
8:20 PM70 °FPassing clouds.10 mph78%29.89 "HgN/A
7:50 PM70 °FPassing clouds.8 mph73%29.89 "HgN/A
7:20 PM70 °FPartly sunny.12 mph78%29.89 "HgN/A
6:50 PM73 °FScattered clouds.8 mph57%29.89 "HgN/A
6:20 PM75 °FPartly sunny.10 mph57%29.89 "HgN/A
5:50 PM77 °FWarm.13 mph51%29.89 "HgN/A
5:20 PM77 °FPassing clouds.8 mph51%29.89 "HgN/A
4:50 PM75 °FPartly sunny.9 mph50%29.89 "HgN/A
4:20 PM75 °FScattered clouds.8 mph54%29.89 "HgN/A
3:50 PM75 °FPartly sunny.9 mph50%29.92 "HgN/A
3:20 PM75 °FPartly sunny.6 mph50%29.92 "HgN/A
2:50 PM73 °FOvercast.8 mph50%29.92 "HgN/A
2:20 PM73 °FPartly sunny.9 mph50%29.92 "HgN/A
1:50 PM75 °FPartly sunny.6 mph47%29.92 "HgN/A
1:20 PM73 °FPartly sunny.6 mph47%29.92 "HgN/A
12:50 PM75 °FScattered clouds.5 mph44%29.92 "HgN/A
12:20 PM73 °FPartly sunny.7 mph47%29.95 "HgN/A
11:50 AM72 °FPartly sunny.6 mph53%29.95 "HgN/A
11:20 AM72 °FMild.5 mph57%29.95 "HgN/A
10:50 AM70 °FScattered clouds.3 mph60%29.95 "HgN/A
10:20 AM70 °FMild.3 mph60%29.95 "HgN/A
9:50 AM68 °FPassing clouds.2 mph69%29.95 "HgN/A
9:20 AM68 °FPassing clouds.3 mph73%29.95 "HgN/A
8:50 AM66 °FPassing clouds.3 mph78%29.95 "HgN/A
8:20 AM64 °FPassing clouds.1 mph83%29.98 "HgN/A
7:50 AM64 °FPartly sunny.1 mph83%29.98 "HgN/A
7:20 AM63 °FPassing clouds.1 mph88%29.98 "HgN/A
Weather by CustomWeather, © 2016

See weather overviewHow to use our weather pages